Location: Atbuku
(36.4936°N, 30.4362°E)
Time: 00:05:54
(UTC+00:00)

Hubble Space Telescope - Visible Passes

Search period start: 14 March 2026 00:00
Search period end: 24 March 2026 00:00
Orbit: 476 x 478 km, 28.5° (Epoch: 13 March)

Date Brightness Start Highest point End Pass type
(mag) Time Alt. Az. Time Alt. Az. Time Alt. Az.
14 Mar 2.1 17:18:28 10° WSW 17:21:30 23° S 17:22:41 20° SSE visible
15 Mar 2.2 16:47:46 10° WSW 16:50:48 23° S 16:53:46 10° SE visible
16 Mar 2.9 17:57:17 10° SW 17:58:57 14° SSW 17:58:57 14° SSW visible
17 Mar 2.9 17:26:33 10° SW 17:28:36 14° SSW 17:30:03 12° S visible
18 Mar 3.0 16:55:49 10° SW 16:57:51 14° SSW 16:59:54 10° SSE visible
